SWR4AH LSZH-EGLC

Flight info

Callsign SWR4AH
Flight time 1h 26m
Altitude 34000
Route VEBIT T10 TORPA DCT REKLA DCT RLP DCT ROTSI DCT KOTUN DCT NURMO DCT VESAN DCT RATUK L613 SOVAT
Aircraft E190/M-SDE3GILORVW/S

Departure

Time 2026-04-30 11:31
Airport Zürich Airport (LSZH)

Arrival

Time 2026-04-30 12:58
Airport London City Airport (EGLC)
Time Latitude Longitude Altitude Speed Heading
2026-04-30 11:06 47.45604 8.55524 1396 ft 0 kts
2026-04-30 11:26 47.45621 8.55527 1407 ft 6 kts
2026-04-30 11:26 47.45662 8.55490 1398 ft 8 kts 295°
2026-04-30 11:27 47.45672 8.55391 1396 ft 11 kts 276°
2026-04-30 11:27 47.45680 8.55268 1402 ft 13 kts 273°
2026-04-30 11:27 47.45626 8.55161 1398 ft 14 kts 199°
2026-04-30 11:27 47.45540 8.55119 1403 ft 12 kts 195°
2026-04-30 11:28 47.45460 8.54959 1398 ft 14 kts 290°
2026-04-30 11:28 47.45496 8.54803 1399 ft 17 kts 288°
2026-04-30 11:28 47.45536 8.54624 1399 ft 20 kts 288°
2026-04-30 11:29 47.45583 8.54413 1390 ft 23 kts 288°
2026-04-30 11:29 47.45633 8.54181 1387 ft 24 kts 288°
2026-04-30 11:29 47.45735 8.53778 1403 ft 11 kts 316°
2026-04-30 11:30 47.45878 8.53765 1396 ft 8 kts 15°
2026-04-30 11:30 47.45889 8.53831 1398 ft 8 kts 99°
2026-04-30 11:30 47.45869 8.54107 1405 ft 57 kts 96°
2026-04-30 11:31 47.45803 8.55012 1398 ft 119 kts 96°
2026-04-30 11:31 47.45702 8.56423 1607 ft 149 kts 91°
2026-04-30 11:31 47.45595 8.58063 2142 ft 170 kts 91°
2026-04-30 11:31 47.45481 8.59837 2963 ft 178 kts 91°
2026-04-30 11:32 47.45355 8.61734 3683 ft 189 kts 91°
2026-04-30 11:32 47.45246 8.63724 4314 ft 200 kts 89°
2026-04-30 11:32 47.45512 8.65764 5015 ft 207 kts 69°
2026-04-30 11:33 47.47615 8.68721 6491 ft 226 kts 22°
2026-04-30 11:33 47.49214 8.68921 7186 ft 239 kts 354°
2026-04-30 11:33 47.50756 8.67948 7925 ft 245 kts 324°
2026-04-30 11:33 47.51810 8.65994 8750 ft 246 kts 296°
2026-04-30 11:34 47.52116 8.63516 9502 ft 249 kts 266°
2026-04-30 11:34 47.51620 8.61047 10077 ft 257 kts 244°
2026-04-30 11:34 47.50651 8.58707 10473 ft 276 kts 232°
2026-04-30 11:34 47.49402 8.56319 10644 ft 309 kts 231°
2026-04-30 11:35 47.48037 8.53642 11005 ft 333 kts 233°
2026-04-30 11:35 47.46643 8.50791 11453 ft 351 kts 234°
2026-04-30 11:35 47.45224 8.47839 12323 ft 355 kts 234°
2026-04-30 11:35 47.43802 8.44836 13298 ft 359 kts 235°
2026-04-30 11:36 47.42361 8.41767 14248 ft 363 kts 235°
2026-04-30 11:36 47.40901 8.38680 15152 ft 367 kts 235°
2026-04-30 11:36 47.39423 8.35564 16052 ft 373 kts 235°
2026-04-30 11:36 47.37971 8.32381 16891 ft 379 kts 240°
2026-04-30 11:37 47.36750 8.28990 17703 ft 383 kts 245°
2026-04-30 11:37 47.35601 8.25403 18563 ft 387 kts 246°
2026-04-30 11:37 47.34442 8.21790 19258 ft 394 kts 245°
2026-04-30 11:37 47.33190 8.18149 19980 ft 399 kts 243°
2026-04-30 11:38 47.31877 8.14543 20770 ft 402 kts 242°
2026-04-30 11:38 47.30535 8.10904 21421 ft 408 kts 242°
2026-04-30 11:38 47.29188 8.07192 22102 ft 411 kts 243°
2026-04-30 11:38 47.27865 8.03445 22703 ft 415 kts 245°
2026-04-30 11:39 47.27041 7.99395 23269 ft 416 kts 266°
2026-04-30 11:39 47.27154 7.95143 23895 ft 415 kts 279°
2026-04-30 11:39 47.27567 7.90925 24383 ft 419 kts 282°
2026-04-30 11:39 47.28079 7.86692 24911 ft 423 kts 282°
2026-04-30 11:40 47.28578 7.82388 25449 ft 427 kts 281°
2026-04-30 11:40 47.29016 7.78053 25956 ft 431 kts 280°
2026-04-30 11:40 47.29418 7.73641 26451 ft 435 kts 279°
2026-04-30 11:40 47.29819 7.69215 26947 ft 438 kts 280°
2026-04-30 11:41 47.30246 7.64750 27396 ft 442 kts 281°
2026-04-30 11:41 47.30931 7.60314 27807 ft 443 kts 288°
2026-04-30 11:41 47.31822 7.56020 28250 ft 446 kts 291°
2026-04-30 11:41 47.32840 7.51636 28646 ft 449 kts 292°
2026-04-30 11:42 47.33869 7.47257 29055 ft 452 kts 291°
2026-04-30 11:42 47.34845 7.42921 29633 ft 451 kts 290°
2026-04-30 11:42 47.35810 7.38435 30016 ft 455 kts 289°
2026-04-30 11:42 47.36745 7.34013 30285 ft 460 kts 289°
2026-04-30 11:43 47.37704 7.29484 30863 ft 455 kts 289°
2026-04-30 11:43 47.38653 7.25055 31388 ft 453 kts 290°
2026-04-30 11:43 47.39602 7.20668 31823 ft 452 kts 290°
2026-04-30 11:43 47.40558 7.16215 32275 ft 450 kts 288°
2026-04-30 11:44 47.41340 7.11720 32636 ft 450 kts 285°
2026-04-30 11:44 47.42009 7.07275 33034 ft 449 kts 284°
2026-04-30 11:44 47.42629 7.02767 33429 ft 448 kts 283°
2026-04-30 11:44 47.43255 6.98187 33808 ft 447 kts 283°
2026-04-30 11:45 47.43886 6.93758 34145 ft 447 kts 284°
2026-04-30 11:45 47.44541 6.89281 34274 ft 432 kts 284°
2026-04-30 11:45 47.45160 6.85068 34153 ft 417 kts 284°
2026-04-30 11:45 47.45764 6.80934 34238 ft 415 kts 284°
2026-04-30 11:46 47.46986 6.72490 34240 ft 421 kts 284°
2026-04-30 11:46 47.48065 6.63972 34227 ft 424 kts 279°
2026-04-30 11:47 47.48728 6.55327 34198 ft 424 kts 277°
2026-04-30 11:47 47.49314 6.46627 34189 ft 426 kts 277°
2026-04-30 11:48 47.49932 6.37937 34189 ft 423 kts 277°
2026-04-30 11:48 47.50548 6.29264 34192 ft 425 kts 277°
2026-04-30 11:49 47.51148 6.20583 34193 ft 425 kts 277°
2026-04-30 11:49 47.51744 6.11889 34176 ft 423 kts 277°
2026-04-30 11:50 47.52332 6.03241 34173 ft 426 kts 277°
2026-04-30 11:50 47.52919 5.94524 34172 ft 425 kts 277°
2026-04-30 11:51 47.53907 5.85977 34181 ft 421 kts 293°
2026-04-30 11:51 47.55277 5.82156 34186 ft 418 kts 309°
2026-04-30 11:51 47.57134 5.78870 34219 ft 417 kts 314°
2026-04-30 11:52 47.60477 5.73736 34163 ft 416 kts 317°
2026-04-30 11:52 47.64495 5.67536 34171 ft 417 kts 315°
2026-04-30 11:53 47.68423 5.61114 34175 ft 418 kts 315°
2026-04-30 11:53 47.72342 5.54752 34180 ft 418 kts 315°
2026-04-30 11:54 47.76267 5.48437 34184 ft 418 kts 315°
2026-04-30 11:54 47.80244 5.41995 34189 ft 421 kts 315°
2026-04-30 11:55 47.84172 5.35604 34182 ft 421 kts 315°
2026-04-30 11:55 47.88114 5.29184 34182 ft 421 kts 315°
2026-04-30 11:56 47.92054 5.22745 34180 ft 420 kts 314°
2026-04-30 11:56 47.95977 5.16268 34187 ft 420 kts 314°
2026-04-30 11:57 47.99884 5.09800 34181 ft 420 kts 314°
2026-04-30 11:57 48.03809 5.03304 34181 ft 421 kts 314°
2026-04-30 11:58 48.07729 4.96795 34182 ft 421 kts 314°
2026-04-30 11:58 48.11644 4.90274 34184 ft 421 kts 314°
2026-04-30 11:59 48.15547 4.83763 34181 ft 421 kts 314°
2026-04-30 11:59 48.19459 4.77214 34180 ft 421 kts 314°
2026-04-30 12:00 48.23371 4.70656 34181 ft 422 kts 314°
2026-04-30 12:00 48.27290 4.64068 34183 ft 423 kts 314°
2026-04-30 12:01 48.31192 4.57491 34181 ft 422 kts 314°
2026-04-30 12:01 48.35082 4.50937 34174 ft 422 kts 314°
2026-04-30 12:02 48.38990 4.44333 34175 ft 422 kts 314°
2026-04-30 12:02 48.42891 4.37718 34177 ft 422 kts 314°
2026-04-30 12:03 48.48739 4.27776 34172 ft 425 kts 313°
2026-04-30 12:04 48.52660 4.21089 34198 ft 425 kts 313°
2026-04-30 12:04 48.56563 4.14417 34202 ft 425 kts 313°
2026-04-30 12:05 48.60474 4.07713 34210 ft 425 kts 313°
2026-04-30 12:05 48.64357 4.01035 34206 ft 425 kts 313°
2026-04-30 12:06 48.68262 3.94310 34211 ft 425 kts 313°
2026-04-30 12:06 48.72245 3.87619 34208 ft 423 kts 320°
2026-04-30 12:07 48.76943 3.82442 34227 ft 421 kts 330°
2026-04-30 12:07 48.81895 3.77734 34201 ft 419 kts 331°
2026-04-30 12:08 48.86817 3.72942 34202 ft 420 kts 329°
2026-04-30 12:08 48.91692 3.68065 34199 ft 420 kts 329°
2026-04-30 12:09 48.96594 3.63201 34196 ft 420 kts 329°
2026-04-30 12:09 49.01500 3.58339 34196 ft 420 kts 329°
2026-04-30 12:10 49.06395 3.53448 34197 ft 421 kts 329°
2026-04-30 12:10 49.11283 3.48561 34201 ft 424 kts 329°
2026-04-30 12:11 49.16213 3.43634 34199 ft 423 kts 329°
2026-04-30 12:11 49.21139 3.38690 34208 ft 423 kts 329°
2026-04-30 12:12 49.26048 3.33751 34195 ft 423 kts 329°
2026-04-30 12:12 49.30976 3.28780 34206 ft 424 kts 329°
2026-04-30 12:13 49.35899 3.23800 34206 ft 424 kts 329°
2026-04-30 12:13 49.40818 3.18815 34206 ft 424 kts 329°
2026-04-30 12:14 49.45743 3.13812 34209 ft 424 kts 329°
2026-04-30 12:14 49.50674 3.08791 34221 ft 425 kts 329°
2026-04-30 12:15 49.55605 3.03757 34205 ft 425 kts 329°
2026-04-30 12:15 49.60532 2.98715 34211 ft 425 kts 329°
2026-04-30 12:16 49.65466 2.93651 34208 ft 425 kts 329°
2026-04-30 12:16 49.70390 2.88587 34214 ft 426 kts 328°
2026-04-30 12:17 49.77758 2.80986 34212 ft 426 kts 328°
2026-04-30 12:17 49.82671 2.75833 34211 ft 427 kts 323°
2026-04-30 12:18 49.87231 2.69911 34203 ft 430 kts 321°
2026-04-30 12:18 49.91759 2.63826 34212 ft 430 kts 321°
2026-04-30 12:19 49.96293 2.57755 34212 ft 431 kts 321°
2026-04-30 12:19 50.00834 2.51672 34210 ft 431 kts 321°
2026-04-30 12:20 50.05359 2.45591 34215 ft 431 kts 321°
2026-04-30 12:20 50.09887 2.39493 34214 ft 431 kts 321°
2026-04-30 12:21 50.14427 2.33367 33973 ft 435 kts 321°
2026-04-30 12:21 50.16707 2.30284 33727 ft 430 kts 321°
2026-04-30 12:21 50.18977 2.27210 33182 ft 436 kts 320°
2026-04-30 12:22 50.21277 2.24092 32599 ft 438 kts 320°
2026-04-30 12:22 50.23581 2.20965 31967 ft 439 kts 320°
2026-04-30 12:22 50.25875 2.17846 31430 ft 438 kts 320°
2026-04-30 12:22 50.28195 2.14690 30820 ft 441 kts 320°
2026-04-30 12:23 50.30510 2.11538 30225 ft 443 kts 320°
2026-04-30 12:23 50.32840 2.08362 29655 ft 443 kts 320°
2026-04-30 12:23 50.35136 2.05226 29045 ft 445 kts 320°
2026-04-30 12:23 50.37462 2.02046 28476 ft 442 kts 320°
2026-04-30 12:24 50.39780 1.98897 27881 ft 439 kts 320°
2026-04-30 12:24 50.42074 1.95803 27314 ft 433 kts 321°
2026-04-30 12:24 50.44344 1.92738 26737 ft 428 kts 321°
2026-04-30 12:24 50.46583 1.89704 26175 ft 423 kts 321°
2026-04-30 12:25 50.48795 1.86704 25614 ft 419 kts 321°
2026-04-30 12:25 50.50994 1.83716 25056 ft 416 kts 320°
2026-04-30 12:25 50.53182 1.80737 24500 ft 414 kts 320°
2026-04-30 12:25 50.55352 1.77780 23955 ft 412 kts 320°
2026-04-30 12:26 50.57509 1.74839 23378 ft 408 kts 320°
2026-04-30 12:26 50.59635 1.71934 22874 ft 403 kts 320°
2026-04-30 12:26 50.61743 1.69051 22331 ft 400 kts 320°
2026-04-30 12:26 50.63833 1.66190 21805 ft 397 kts 320°
2026-04-30 12:27 50.65906 1.63348 21292 ft 394 kts 320°
2026-04-30 12:27 50.67961 1.60513 20760 ft 391 kts 319°
2026-04-30 12:27 50.69998 1.57689 20250 ft 388 kts 319°
2026-04-30 12:27 50.72016 1.54893 19739 ft 384 kts 319°
2026-04-30 12:28 50.74015 1.52117 19236 ft 381 kts 319°
2026-04-30 12:28 50.76003 1.49356 18729 ft 378 kts 319°
2026-04-30 12:28 50.77969 1.46622 18200 ft 375 kts 319°
2026-04-30 12:28 50.79907 1.43899 17753 ft 371 kts 318°
2026-04-30 12:29 50.81800 1.41208 17246 ft 369 kts 318°
2026-04-30 12:29 50.83728 1.38470 16757 ft 366 kts 318°
2026-04-30 12:29 50.85608 1.35794 16268 ft 360 kts 318°
2026-04-30 12:29 50.87590 1.33484 15798 ft 351 kts 336°
2026-04-30 12:30 50.89875 1.32587 15386 ft 338 kts 360°
2026-04-30 12:30 50.92194 1.32684 14938 ft 331 kts
2026-04-30 12:30 50.94479 1.32974 14475 ft 328 kts
2026-04-30 12:30 50.96746 1.33175 14055 ft 324 kts
2026-04-30 12:31 50.98990 1.32892 13621 ft 323 kts 353°
2026-04-30 12:31 51.01189 1.32242 13190 ft 320 kts 352°
2026-04-30 12:31 51.03366 1.31621 12774 ft 316 kts 353°
2026-04-30 12:31 51.05535 1.31062 12362 ft 315 kts 354°
2026-04-30 12:32 51.07703 1.30546 11945 ft 315 kts 355°
2026-04-30 12:32 51.09864 1.30039 11528 ft 314 kts 355°
2026-04-30 12:32 51.12013 1.29537 11113 ft 310 kts 354°
2026-04-30 12:32 51.14141 1.29033 10692 ft 308 kts 355°
2026-04-30 12:33 51.16238 1.28541 10445 ft 300 kts 355°
2026-04-30 12:33 51.18266 1.28105 10277 ft 288 kts 358°
2026-04-30 12:33 51.20222 1.27846 10215 ft 274 kts 359°
2026-04-30 12:33 51.22075 1.27618 10202 ft 261 kts 359°
2026-04-30 12:34 51.23862 1.27383 10179 ft 256 kts 359°
2026-04-30 12:34 51.25628 1.27146 10289 ft 254 kts 359°
2026-04-30 12:34 51.27418 1.26904 10300 ft 260 kts 359°
2026-04-30 12:34 51.29221 1.26653 10318 ft 260 kts 359°
2026-04-30 12:35 51.31028 1.26387 10321 ft 261 kts 359°
2026-04-30 12:35 51.32846 1.26126 10227 ft 263 kts 359°
2026-04-30 12:35 51.34632 1.26155 10237 ft 253 kts 19°
2026-04-30 12:35 51.36281 1.27056 10276 ft 251 kts 29°
2026-04-30 12:36 51.37871 1.28210 10269 ft 251 kts 30°
2026-04-30 12:36 51.38928 1.28972 10252 ft 251 kts 29°
2026-04-30 12:36 51.41045 1.30441 10254 ft 250 kts 28°
2026-04-30 12:36 51.42669 1.31458 10251 ft 254 kts 19°
2026-04-30 12:37 51.44448 1.31719 10279 ft 260 kts
2026-04-30 12:37 51.46263 1.31689 10256 ft 261 kts
2026-04-30 12:37 51.47477 1.31712 10260 ft 260 kts
2026-04-30 12:37 51.49877 1.31835 10259 ft 259 kts
2026-04-30 12:38 51.51099 1.31825 10255 ft 262 kts 356°
2026-04-30 12:38 51.52870 1.31076 10276 ft 267 kts 343°
2026-04-30 12:38 51.54627 1.30040 10260 ft 268 kts 343°
2026-04-30 12:38 51.56364 1.28922 9982 ft 278 kts 329°
2026-04-30 12:39 51.57625 1.26609 9670 ft 273 kts 290°
2026-04-30 12:39 51.57859 1.23714 9529 ft 258 kts 253°
2026-04-30 12:39 51.57077 1.21256 9358 ft 243 kts 221°
2026-04-30 12:39 51.55906 1.19350 9149 ft 245 kts 219°
2026-04-30 12:40 51.54754 1.17298 8851 ft 250 kts 229°
2026-04-30 12:40 51.53878 1.14894 8599 ft 251 kts 238°
2026-04-30 12:40 51.53141 1.12363 8312 ft 251 kts 240°
2026-04-30 12:40 51.52458 1.09762 8032 ft 250 kts 242°
2026-04-30 12:41 51.51783 1.07215 7768 ft 247 kts 240°
2026-04-30 12:41 51.51084 1.04704 7415 ft 248 kts 240°
2026-04-30 12:41 51.50352 1.02132 6956 ft 255 kts 240°
2026-04-30 12:41 51.49620 0.99555 6681 ft 252 kts 240°
2026-04-30 12:42 51.48895 0.97012 6406 ft 249 kts 240°
2026-04-30 12:42 51.48181 0.94513 6209 ft 243 kts 239°
2026-04-30 12:42 51.47547 0.92048 6104 ft 240 kts 252°
2026-04-30 12:42 51.47429 0.89369 6080 ft 244 kts 268°
2026-04-30 12:43 51.47570 0.86625 6073 ft 249 kts 271°
2026-04-30 12:43 51.47740 0.83841 5975 ft 252 kts 270°
2026-04-30 12:43 51.47880 0.81036 5796 ft 251 kts 269°
2026-04-30 12:43 51.47998 0.78269 5765 ft 247 kts 269°
2026-04-30 12:44 51.48103 0.75522 5738 ft 247 kts 269°
2026-04-30 12:44 51.48206 0.72798 5665 ft 248 kts 269°
2026-04-30 12:44 51.48310 0.70026 5548 ft 250 kts 269°
2026-04-30 12:44 51.48413 0.67245 5426 ft 249 kts 269°
2026-04-30 12:45 51.48516 0.64471 5306 ft 249 kts 269°
2026-04-30 12:45 51.48616 0.61706 5187 ft 248 kts 269°
2026-04-30 12:45 51.48717 0.58957 5066 ft 246 kts 269°
2026-04-30 12:45 51.48815 0.56201 4850 ft 249 kts 269°
2026-04-30 12:46 51.48913 0.53428 4584 ft 249 kts 269°
2026-04-30 12:46 51.49012 0.50669 4351 ft 246 kts 269°
2026-04-30 12:46 51.49105 0.47942 4151 ft 243 kts 266°
2026-04-30 12:46 51.48792 0.45367 3906 ft 231 kts 240°
2026-04-30 12:47 51.48006 0.43181 3725 ft 224 kts 230°
2026-04-30 12:47 51.47143 0.41120 3622 ft 219 kts 230°
2026-04-30 12:47 51.46338 0.39103 3433 ft 210 kts 231°
2026-04-30 12:47 51.45589 0.37151 3299 ft 200 kts 232°
2026-04-30 12:48 51.44891 0.35274 3209 ft 194 kts 232°
2026-04-30 12:48 51.44202 0.33420 3134 ft 194 kts 233°
2026-04-30 12:48 51.43514 0.31554 3116 ft 196 kts 233°
2026-04-30 12:48 51.43022 0.29463 2932 ft 205 kts 258°
2026-04-30 12:49 51.43051 0.27201 3004 ft 206 kts 272°
2026-04-30 12:49 51.43190 0.24910 3028 ft 207 kts 272°
2026-04-30 12:49 51.43304 0.22598 2946 ft 208 kts 270°
2026-04-30 12:49 51.43392 0.20290 2787 ft 208 kts 269°
2026-04-30 12:50 51.43450 0.17991 2687 ft 205 kts 269°
2026-04-30 12:50 51.43519 0.15684 2649 ft 207 kts 270°
2026-04-30 12:50 51.43587 0.13325 2632 ft 211 kts 269°
2026-04-30 12:50 51.43644 0.10972 2414 ft 211 kts 269°
2026-04-30 12:51 51.43723 0.08631 2216 ft 204 kts 271°
2026-04-30 12:51 51.43800 0.06396 2111 ft 198 kts 271°
2026-04-30 12:51 51.43884 0.04212 2099 ft 196 kts 271°
2026-04-30 12:51 51.43953 0.02009 2029 ft 201 kts 271°
2026-04-30 12:52 51.44036 -0.00254 1939 ft 199 kts 271°
2026-04-30 12:52 51.44109 -0.02442 1910 ft 197 kts 271°
2026-04-30 12:52 51.44172 -0.04625 1905 ft 197 kts 271°
2026-04-30 12:52 51.44231 -0.06739 1960 ft 183 kts 269°
2026-04-30 12:53 51.44311 -0.08728 1928 ft 173 kts 276°
2026-04-30 12:53 51.44801 -0.10473 1855 ft 173 kts 318°
2026-04-30 12:53 51.45780 -0.11261 1769 ft 146 kts 351°
2026-04-30 12:53 51.46743 -0.11501 1711 ft 136 kts
2026-04-30 12:54 51.47681 -0.11690 1792 ft 137 kts 358°
2026-04-30 12:54 51.48628 -0.11909 1937 ft 142 kts
2026-04-30 12:54 51.49494 -0.11462 1999 ft 124 kts 49°
2026-04-30 12:54 51.49931 -0.10331 1962 ft 119 kts 68°
2026-04-30 12:55 51.50329 -0.09154 1975 ft 118 kts 68°
2026-04-30 12:55 51.50718 -0.07963 1821 ft 120 kts 72°
2026-04-30 12:55 51.50870 -0.06690 1685 ft 112 kts 99°
2026-04-30 12:55 51.50820 -0.05428 1760 ft 115 kts 92°
2026-04-30 12:56 51.50823 -0.04113 1741 ft 116 kts 96°
2026-04-30 12:56 51.50775 -0.02821 1738 ft 116 kts 96°
2026-04-30 12:56 51.50734 -0.01504 1396 ft 119 kts 95°
2026-04-30 12:56 51.50700 -0.00198 1109 ft 113 kts 93°
2026-04-30 12:57 51.50657 0.01052 815 ft 111 kts 91°
2026-04-30 12:57 51.50620 0.02302 538 ft 113 kts 92°
2026-04-30 12:57 51.50589 0.03533 266 ft 110 kts 93°
2026-04-30 12:57 51.50551 0.04710 33 ft 100 kts 92°
2026-04-30 12:58 51.50521 0.05598 23 ft 54 kts 93°
2026-04-30 12:58 51.50509 0.05967 23 ft 16 kts 94°
2026-04-30 12:58 51.50477 0.06040 23 ft 6 kts 188°
2026-04-30 12:58 51.50438 0.05984 23 ft 9 kts 232°
2026-04-30 12:59 51.50428 0.05873 23 ft 12 kts 274°
2026-04-30 12:59 51.50432 0.05726 25 ft 15 kts 273°
2026-04-30 12:59 51.50438 0.05546 23 ft 18 kts 273°
2026-04-30 12:59 51.50444 0.05365 23 ft 16 kts 273°
2026-04-30 13:00 51.50448 0.05225 25 ft 9 kts 274°
2026-04-30 13:00 51.50451 0.05125 23 ft 9 kts 272°
2026-04-30 13:00 51.50441 0.05087 25 ft 3 kts 208°
2026-04-30 13:00 51.50418 0.05084 23 ft 3 kts 183°
2026-04-30 13:01 51.50406 0.05079 23 ft 1 kts 210°
2026-04-30 13:01 51.50406 0.05070 23 ft 1 kts 258°
2026-04-30 13:01 51.50410 0.05063 24 ft 1 kts 307°
2026-04-30 13:01 51.50431 0.05057 24 ft 6 kts 357°
2026-04-30 13:02 51.50452 0.05078 23 ft 2 kts 96°
2026-04-30 13:02 51.50435 0.05084 24 ft 4 kts 177°
2026-04-30 13:02 51.50411 0.05083 23 ft 3 kts 181°
2026-04-30 13:02 51.50402 0.05073 23 ft 1 kts 238°
2026-04-30 13:03 51.50406 0.05064 24 ft 1 kts 292°
2026-04-30 13:03 51.50412 0.05063 25 ft 1 kts 339°